Time,TemperatureF,DewpointF,PressureIn,WindDirection,WindDirectionDegrees,WindSpeedMPH,WindSpeedGustMPH,Humidity,HourlyPrecipIn,Conditions,Clouds,dailyrainin,SoftwareType,DateUTC
2013-09-12 00:01:00,63.4,62.2,29.87,WSW,240,0.0,0.0,96,0.00,CLR,,0.07,WeatherDisplay:10.37,2013-09-12 04:01:00,
2013-09-12 00:02:00,63.4,62.2,29.87,WSW,240,1.0,0.0,96,0.00,RA,,0.00,WeatherDisplay:10.37,2013-09-12 04:02:00,
2013-09-12 00:03:00,63.5,62.3,29.87,WSW,240,2.3,2.3,96,0.00,RA,,0.00,WeatherDisplay:10.37,2013-09-12 04:03:00,
2013-09-12 00:08:00,63.5,62.6,29.87,WSW,240,0.0,0.0,97,0.00,RA,,0.00,WeatherDisplay:10.37,2013-09-12 04:08:00,
2013-09-12 00:10:00,63.6,62.7,29.87,WSW,240,3.5,3.5,97,0.00,RA,,0.00,WeatherDisplay:10.37,2013-09-12 04:10:00,
2013-09-12 00:15:00,63.8,62.9,29.87,WSW,240,0.0,0.0,97,0.00,CLR,,0.00,WeatherDisplay:10.37,2013-09-12 04:15:00,
2013-09-12 00:20:00,63.9,63.0,29.86,WSW,240,0.0,0.0,97,0.00,CLR,,0.00,WeatherDisplay:10.37,2013-09-12 04:20:00,
2013-09-12 00:25:00,64.0,63.1,29.86,WSW,239,2.3,2.3,97,0.00,CLR,,0.00,WeatherDisplay:10.37,2013-09-12 04:25:00,
2013-09-12 00:30:00,63.9,63.0,29.86,WSW,239,0.0,0.0,97,0.00,CLR,,0.00,WeatherDisplay:10.37,2013-09-12 04:30:00,
2013-09-12 00:35:00,63.9,63.0,29.86,WSW,239,0.0,0.0,97,0.00,CLR,,0.00,WeatherDisplay:10.37,2013-09-12 04:35:00,
2013-09-12 00:40:00,64.0,63.1,29.85,WSW,239,0.0,0.0,97,0.00,CLR,,0.00,WeatherDisplay:10.37,2013-09-12 04:40:00,
2013-09-12 00:45:00,64.0,63.1,29.85,WSW,238,0.0,0.0,97,0.00,CLR,,0.00,WeatherDisplay:10.37,2013-09-12 04:45:00,
2013-09-12 00:50:00,64.0,63.1,29.85,WSW,239,0.0,0.0,97,0.00,CLR,,0.00,WeatherDisplay:10.37,2013-09-12 04:50:00,
2013-09-12 00:56:00,64.0,63.1,29.85,WSW,239,0.0,0.0,97,0.00,CLR,,0.00,WeatherDisplay:10.37,2013-09-12 04:56:00,
2013-09-12 01:01:00,64.0,63.1,29.84,WSW,238,0.0,0.0,97,0.00,CLR,,0.00,WeatherDisplay:10.37,2013-09-12 05:01:00,
2013-09-12 01:06:00,64.1,63.2,29.84,WSW,238,1.1,0.0,97,0.00,CLR,,0.00,WeatherDisplay:10.37,2013-09-12 05:06:00,
2013-09-12 01:11:00,64.1,63.2,29.83,WSW,239,0.0,0.1,97,0.00,CLR,,0.00,WeatherDisplay:10.37,2013-09-12 05:11:00,
2013-09-12 01:16:00,64.1,63.2,29.83,WSW,238,1.1,1.1,97,0.00,CLR,,0.00,WeatherDisplay:10.37,2013-09-12 05:16:00,
2013-09-12 01:21:00,64.0,63.1,29.83,WSW,237,0.0,0.0,97,0.00,CLR,,0.00,WeatherDisplay:10.37,2013-09-12 05:21:00,
2013-09-12 01:26:00,63.9,63.0,29.83,WSW,237,0.0,0.0,97,0.00,CLR,,0.00,WeatherDisplay:10.37,2013-09-12 05:26:00,
2013-09-12 01:31:00,63.9,63.0,29.83,WSW,238,0.0,0.0,97,0.00,CLR,,0.00,WeatherDisplay:10.37,2013-09-12 05:31:00,
2013-09-12 01:36:00,63.8,62.9,29.83,WSW,238,0.0,0.0,97,0.00,CLR,,0.00,WeatherDisplay:10.37,2013-09-12 05:36:00,
2013-09-12 01:41:00,63.7,62.8,29.83,WSW,237,0.0,0.0,97,0.00,CLR,,0.00,WeatherDisplay:10.37,2013-09-12 05:41:00,
2013-09-12 01:46:00,63.5,62.6,29.83,WSW,237,0.0,0.0,97,0.00,CLR,,0.00,WeatherDisplay:10.37,2013-09-12 05:46:00,
2013-09-12 01:51:00,63.4,62.5,29.83,WSW,238,0.0,0.0,97,0.00,CLR,,0.00,WeatherDisplay:10.37,2013-09-12 05:51:00,
2013-09-12 01:56:00,63.4,62.8,29.83,WSW,238,0.0,0.0,98,0.00,CLR,,0.00,WeatherDisplay:10.37,2013-09-12 05:56:00,
2013-09-12 02:01:00,63.5,62.9,29.83,WSW,237,0.0,0.0,98,0.00,CLR,,0.00,WeatherDisplay:10.37,2013-09-12 06:01:00,
2013-09-12 02:06:00,63.4,62.8,29.83,SW,236,2.3,2.3,98,0.00,CLR,,0.00,WeatherDisplay:10.37,2013-09-12 06:06:00,
2013-09-12 02:11:00,63.4,62.8,29.83,SW,236,1.1,0.0,98,0.00,CLR,,0.00,WeatherDisplay:10.37,2013-09-12 06:11:00,
2013-09-12 02:16:00,63.4,62.8,29.83,SW,234,1.1,0.0,98,0.00,CLR,,0.00,WeatherDisplay:10.37,2013-09-12 06:16:00,
2013-09-12 02:21:00,63.4,62.8,29.83,SW,234,4.0,4.0,98,0.00,CLR,,0.00,WeatherDisplay:10.37,2013-09-12 06:21:00,
2013-09-12 02:26:00,63.5,62.9,29.83,SW,234,0.0,0.0,98,0.00,CLR,,0.00,WeatherDisplay:10.37,2013-09-12 06:26:00,
2013-09-12 02:31:00,63.5,62.9,29.83,SW,234,0.0,0.0,98,0.00,CLR,,0.00,WeatherDisplay:10.37,2013-09-12 06:31:00,
2013-09-12 02:36:00,63.5,62.9,29.82,SW,230,0.0,0.0,98,0.00,CLR,,0.00,WeatherDisplay:10.37,2013-09-12 06:36:00,
2013-09-12 02:41:00,63.4,62.8,29.82,SW,230,0.0,0.0,98,0.00,CLR,,0.00,WeatherDisplay:10.37,2013-09-12 06:41:00,
2013-09-12 02:46:00,63.5,62.9,29.82,SW,230,1.1,1.1,98,0.00,CLR,,0.00,WeatherDisplay:10.37,2013-09-12 06:46:00,
2013-09-12 02:51:00,63.4,62.8,29.82,SW,229,0.0,0.0,98,0.00,CLR,,0.00,WeatherDisplay:10.37,2013-09-12 06:51:00,
2013-09-12 02:56:00,63.4,62.8,29.82,SW,229,0.0,0.1,98,0.00,CLR,,0.00,WeatherDisplay:10.37,2013-09-12 06:56:00,
2013-09-12 03:01:00,63.4,62.8,29.82,SW,229,0.0,0.0,98,0.00,CLR,,0.00,WeatherDisplay:10.37,2013-09-12 07:01:00,
2013-09-12 03:06:00,63.4,62.8,29.82,SW,229,1.1,1.1,98,0.00,CLR,,0.00,WeatherDisplay:10.37,2013-09-12 07:06:00,
2013-09-12 03:11:00,63.4,62.8,29.82,SW,229,1.1,0.0,98,0.00,CLR,,0.00,WeatherDisplay:10.37,2013-09-12 07:11:00,
2013-09-12 03:16:00,63.3,62.7,29.82,SW,229,0.0,0.0,98,0.00,CLR,,0.00,WeatherDisplay:10.37,2013-09-12 07:16:00,
2013-09-12 03:21:00,63.2,62.6,29.82,SW,230,0.0,0.0,98,0.00,CLR,,0.00,WeatherDisplay:10.37,2013-09-12 07:21:00,
2013-09-12 03:26:00,63.2,62.6,29.82,SW,230,1.1,0.0,98,0.00,CLR,,0.00,WeatherDisplay:10.37,2013-09-12 07:26:00,
2013-09-12 03:31:00,63.2,62.6,29.82,SW,230,1.1,0.0,98,0.00,CLR,,0.00,WeatherDisplay:10.37,2013-09-12 07:31:00,
2013-09-12 03:36:00,63.1,62.5,29.82,SW,230,1.1,0.0,98,0.00,CLR,,0.00,WeatherDisplay:10.37,2013-09-12 07:36:00,
2013-09-12 03:41:00,63.0,62.4,29.82,SW,230,2.0,2.0,98,0.00,CLR,,0.00,WeatherDisplay:10.37,2013-09-12 07:41:00,
2013-09-12 03:46:00,63.0,62.4,29.82,SW,230,0.0,0.0,98,0.00,CLR,,0.00,WeatherDisplay:10.37,2013-09-12 07:46:00,
2013-09-12 03:51:00,62.9,62.3,29.82,SW,230,0.0,0.0,98,0.00,CLR,,0.00,WeatherDisplay:10.37,2013-09-12 07:51:00,
2013-09-12 03:56:00,62.8,62.2,29.82,SW,230,0.0,0.0,98,0.00,CLR,,0.00,WeatherDisplay:10.37,2013-09-12 07:56:00,
2013-09-12 04:01:00,62.8,62.2,29.82,SW,230,0.0,0.0,98,0.00,CLR,,0.00,WeatherDisplay:10.37,2013-09-12 08:01:00,
2013-09-12 04:06:00,62.8,62.2,29.82,SW,230,0.0,0.0,98,0.00,CLR,,0.00,WeatherDisplay:10.37,2013-09-12 08:06:00,
2013-09-12 04:11:00,62.7,62.1,29.82,SW,230,0.0,0.0,98,0.00,CLR,,0.00,WeatherDisplay:10.37,2013-09-12 08:11:00,
2013-09-12 04:16:00,62.6,62.0,29.82,SW,230,0.0,0.0,98,0.00,CLR,,0.00,WeatherDisplay:10.37,2013-09-12 08:16:00,
2013-09-12 04:21:00,62.6,62.0,29.82,SW,231,0.0,0.0,98,0.00,CLR,,0.00,WeatherDisplay:10.37,2013-09-12 08:21:00,
2013-09-12 04:26:00,62.5,61.9,29.82,SW,230,1.1,0.0,98,0.00,CLR,,0.00,WeatherDisplay:10.37,2013-09-12 08:26:00,
2013-09-12 04:31:00,62.5,61.9,29.82,SW,230,0.0,0.0,98,0.00,CLR,,0.00,WeatherDisplay:10.37,2013-09-12 08:31:00,
2013-09-12 04:36:00,62.5,61.9,29.82,SW,231,0.0,0.0,98,0.00,CLR,,0.00,WeatherDisplay:10.37,2013-09-12 08:36:00,
2013-09-12 04:41:00,62.5,61.9,29.82,SW,232,0.0,0.0,98,0.00,CLR,,0.00,WeatherDisplay:10.37,2013-09-12 08:41:00,
2013-09-12 04:46:00,62.5,61.9,29.82,SW,232,0.0,0.0,98,0.00,CLR,,0.00,WeatherDisplay:10.37,2013-09-12 08:46:00,
2013-09-12 04:51:00,62.5,61.9,29.82,SW,232,0.0,0.0,98,0.00,CLR,,0.00,WeatherDisplay:10.37,2013-09-12 08:51:00,
2013-09-12 04:56:00,62.5,61.9,29.82,SW,234,3.5,0.0,98,0.00,CLR,,0.00,WeatherDisplay:10.37,2013-09-12 08:56:00,
2013-09-12 05:01:00,62.5,61.9,29.82,SW,234,1.1,0.0,98,0.00,CLR,,0.00,WeatherDisplay:10.37,2013-09-12 09:01:00,
2013-09-12 05:06:00,62.5,61.9,29.82,SW,234,0.0,0.0,98,0.00,CLR,,0.00,WeatherDisplay:10.37,2013-09-12 09:06:00,
2013-09-12 05:11:00,62.3,61.7,29.82,SW,234,0.0,0.0,98,0.00,CLR,,0.00,WeatherDisplay:10.37,2013-09-12 09:11:00,
2013-09-12 05:16:00,62.2,61.6,29.82,SW,234,0.0,0.0,98,0.00,CLR,,0.00,WeatherDisplay:10.37,2013-09-12 09:16:00,
2013-09-12 05:21:00,62.1,61.5,29.82,SW,234,0.0,0.0,98,0.00,CLR,,0.00,WeatherDisplay:10.37,2013-09-12 09:21:00,
2013-09-12 05:26:00,61.9,61.3,29.82,SW,234,0.0,0.0,98,0.01,RA,,0.01,WeatherDisplay:10.37,2013-09-12 09:26:00,
2013-09-12 05:31:00,61.8,61.2,29.82,SW,234,0.0,0.0,98,0.01,RA,,0.01,WeatherDisplay:10.37,2013-09-12 09:31:00,
2013-09-12 05:36:00,61.8,61.2,29.82,SW,234,0.0,0.0,98,0.01,CLR,,0.01,WeatherDisplay:10.37,2013-09-12 09:36:00,
2013-09-12 05:41:00,61.7,61.1,29.82,SW,234,0.0,0.0,98,0.01,CLR,,0.01,WeatherDisplay:10.37,2013-09-12 09:41:00,
2013-09-12 05:46:00,61.6,61.0,29.82,SW,234,0.0,0.0,98,0.01,CLR,,0.01,WeatherDisplay:10.37,2013-09-12 09:46:00,
2013-09-12 05:51:00,61.6,61.0,29.82,SW,234,0.0,0.0,98,0.01,CLR,,0.01,WeatherDisplay:10.37,2013-09-12 09:51:00,
2013-09-12 05:56:00,61.7,61.1,29.82,SW,234,0.0,0.0,98,0.01,CLR,,0.01,WeatherDisplay:10.37,2013-09-12 09:56:00,
2013-09-12 06:01:00,61.7,61.1,29.82,SW,234,0.0,0.0,98,0.01,CLR,,0.01,WeatherDisplay:10.37,2013-09-12 10:01:00,
2013-09-12 06:06:00,61.7,61.1,29.83,SW,234,0.0,0.0,98,0.01,CLR,,0.01,WeatherDisplay:10.37,2013-09-12 10:06:00,
2013-09-12 06:11:00,61.6,61.0,29.83,SW,234,0.0,0.0,98,0.01,CLR,,0.01,WeatherDisplay:10.37,2013-09-12 10:11:00,
2013-09-12 06:16:00,61.4,60.8,29.82,SW,234,0.0,0.0,98,0.01,CLR,,0.01,WeatherDisplay:10.37,2013-09-12 10:16:00,
2013-09-12 06:21:00,61.2,60.6,29.83,SW,234,0.0,0.0,98,0.01,CLR,,0.01,WeatherDisplay:10.37,2013-09-12 10:21:00,
2013-09-12 06:26:00,61.2,60.6,29.83,SW,234,2.3,2.3,98,0.00,CLR,,0.01,WeatherDisplay:10.37,2013-09-12 10:26:00,
2013-09-12 06:31:00,61.1,60.5,29.83,SW,234,0.0,0.0,98,0.00,CLR,,0.01,WeatherDisplay:10.37,2013-09-12 10:31:00,
2013-09-12 06:36:00,60.9,60.3,29.83,SW,234,0.0,0.0,98,0.00,CLR,,0.01,WeatherDisplay:10.37,2013-09-12 10:36:00,
2013-09-12 06:41:00,60.7,60.1,29.83,SW,234,0.0,0.0,98,0.00,CLR,,0.01,WeatherDisplay:10.37,2013-09-12 10:41:00,
2013-09-12 06:46:00,60.6,60.0,29.83,SW,234,0.0,0.0,98,0.00,CLR,,0.01,WeatherDisplay:10.37,2013-09-12 10:46:00,
2013-09-12 06:51:00,60.4,59.8,29.84,SW,234,0.0,0.0,98,0.00,CLR,,0.01,WeatherDisplay:10.37,2013-09-12 10:51:00,
2013-09-12 06:56:00,60.3,59.7,29.84,SW,234,0.0,0.0,98,0.00,CLR,,0.01,WeatherDisplay:10.37,2013-09-12 10:56:00,
2013-09-12 07:01:00,60.3,59.7,29.84,SW,234,0.0,0.0,98,0.00,CLR,,0.01,WeatherDisplay:10.37,2013-09-12 11:01:00,
2013-09-12 07:06:00,60.2,59.6,29.84,SW,234,0.0,0.0,98,0.00,CLR,,0.01,WeatherDisplay:10.37,2013-09-12 11:06:00,
2013-09-12 07:11:00,60.1,59.5,29.84,SW,234,0.0,0.0,98,0.00,CLR,,0.01,WeatherDisplay:10.37,2013-09-12 11:11:00,
2013-09-12 07:16:00,59.8,59.2,29.85,SW,234,0.0,0.0,98,0.00,CLR,,0.01,WeatherDisplay:10.37,2013-09-12 11:16:00,
2013-09-12 07:21:00,59.6,59.0,29.85,SW,234,1.1,0.0,98,0.00,CLR,,0.01,WeatherDisplay:10.37,2013-09-12 11:21:00,
2013-09-12 07:26:00,59.4,58.8,29.85,SW,234,0.0,0.0,98,0.00,CLR,,0.01,WeatherDisplay:10.37,2013-09-12 11:26:00,
2013-09-12 07:31:00,59.0,58.4,29.85,SW,234,0.0,0.0,98,0.00,CLR,,0.01,WeatherDisplay:10.37,2013-09-12 11:31:00,
2013-09-12 07:36:00,59.0,58.4,29.85,SW,234,0.0,0.0,98,0.00,CLR,,0.01,WeatherDisplay:10.37,2013-09-12 11:36:00,
2013-09-12 07:41:00,59.0,58.4,29.85,SW,234,0.0,0.0,98,0.00,CLR,,0.01,WeatherDisplay:10.37,2013-09-12 11:41:00,
2013-09-12 07:46:00,58.9,58.3,29.85,SW,234,0.0,0.0,98,0.00,CLR,,0.01,WeatherDisplay:10.37,2013-09-12 11:46:00,
2013-09-12 07:51:00,58.9,58.3,29.85,SW,234,0.0,0.0,98,0.00,CLR,,0.01,WeatherDisplay:10.37,2013-09-12 11:51:00,
2013-09-12 07:56:00,59.0,58.4,29.86,SW,234,1.1,1.1,98,0.00,CLR,,0.01,WeatherDisplay:10.37,2013-09-12 11:56:00,
2013-09-12 08:01:00,59.0,58.4,29.86,SW,234,0.0,0.0,98,0.00,CLR,,0.01,WeatherDisplay:10.37,2013-09-12 12:01:00,
2013-09-12 08:06:00,59.0,58.4,29.85,SW,234,0.0,0.0,98,0.00,CLR,,0.01,WeatherDisplay:10.37,2013-09-12 12:06:00,
2013-09-12 08:11:00,59.0,58.4,29.86,SW,234,0.0,0.0,98,0.00,CLR,,0.01,WeatherDisplay:10.37,2013-09-12 12:11:00,
2013-09-12 08:16:00,59.3,58.7,29.86,SW,234,0.0,0.0,98,0.00,CLR,,0.01,WeatherDisplay:10.37,2013-09-12 12:16:00,
2013-09-12 08:21:00,59.7,59.1,29.86,SW,234,1.1,0.0,98,0.00,CLR,,0.01,WeatherDisplay:10.37,2013-09-12 12:21:00,
2013-09-12 08:26:00,59.9,59.6,29.86,SW,234,3.5,3.5,99,0.00,CLR,,0.01,WeatherDisplay:10.37,2013-09-12 12:26:00,
2013-09-12 08:31:00,60.1,59.8,29.86,SW,234,0.0,0.0,99,0.00,CLR,,0.01,WeatherDisplay:10.37,2013-09-12 12:31:00,
2013-09-12 08:36:00,60.4,59.8,29.86,SW,234,0.0,0.0,98,0.00,CLR,,0.01,WeatherDisplay:10.37,2013-09-12 12:36:00,
2013-09-12 08:41:00,60.7,60.4,29.86,SW,234,0.0,0.0,99,0.00,CLR,,0.01,WeatherDisplay:10.37,2013-09-12 12:41:00,
2013-09-12 08:46:00,61.0,60.7,29.86,SW,234,0.0,0.0,99,0.00,CLR,,0.01,WeatherDisplay:10.37,2013-09-12 12:46:00,
2013-09-12 08:51:00,61.3,61.0,29.86,WSW,241,4.6,4.6,99,0.00,CLR,,0.01,WeatherDisplay:10.37,2013-09-12 12:51:00,
2013-09-12 08:56:00,61.7,61.4,29.86,WSW,242,3.5,3.5,99,0.00,CLR,,0.01,WeatherDisplay:10.37,2013-09-12 12:56:00,
2013-09-12 09:01:00,62.0,61.7,29.86,WSW,243,1.1,1.1,99,0.00,CLR,,0.01,WeatherDisplay:10.37,2013-09-12 13:01:00,
2013-09-12 09:06:00,62.3,62.0,29.86,WSW,244,0.0,0.0,99,0.00,CLR,,0.01,WeatherDisplay:10.37,2013-09-12 13:06:00,
2013-09-12 09:11:00,62.6,62.0,29.86,WSW,243,1.1,0.0,98,0.00,CLR,,0.01,WeatherDisplay:10.37,2013-09-12 13:11:00,
2013-09-12 09:16:00,63.2,62.9,29.86,WSW,244,0.0,0.0,99,0.00,CLR,,0.01,WeatherDisplay:10.37,2013-09-12 13:16:00,
2013-09-12 09:21:00,63.6,63.0,29.86,WSW,243,0.0,0.0,98,0.00,CLR,,0.01,WeatherDisplay:10.37,2013-09-12 13:21:00,
2013-09-12 09:26:00,63.8,62.9,29.85,WSW,243,0.0,0.0,97,0.00,CLR,,0.01,WeatherDisplay:10.37,2013-09-12 13:26:00,
2013-09-12 09:31:00,64.2,63.3,29.86,WSW,242,0.0,0.0,97,0.00,CLR,,0.01,WeatherDisplay:10.37,2013-09-12 13:31:00,
2013-09-12 09:36:00,64.6,63.1,29.86,WSW,244,0.0,0.0,95,0.00,CLR,,0.01,WeatherDisplay:10.37,2013-09-12 13:36:00,
2013-09-12 09:41:00,64.7,62.9,29.86,WSW,240,0.0,0.0,94,0.00,CLR,,0.01,WeatherDisplay:10.37,2013-09-12 13:41:00,
2013-09-12 09:46:00,65.1,62.7,29.86,WSW,258,2.3,2.3,92,0.00,CLR,,0.01,WeatherDisplay:10.37,2013-09-12 13:46:00,
2013-09-12 09:51:00,65.7,63.0,29.86,NW,304,0.0,0.1,91,0.00,CLR,,0.01,WeatherDisplay:10.37,2013-09-12 13:51:00,
2013-09-12 09:56:00,65.6,61.9,29.86,West,281,3.5,3.5,88,0.00,CLR,,0.01,WeatherDisplay:10.37,2013-09-12 13:56:00,
2013-09-12 10:01:00,65.8,62.5,29.86,NE,39,7.0,7.0,89,0.00,CLR,,0.01,WeatherDisplay:10.37,2013-09-12 14:01:00,
2013-09-12 10:06:00,66.2,62.5,29.87,West,259,6.9,6.9,88,0.00,CLR,,0.01,WeatherDisplay:10.37,2013-09-12 14:06:00,
2013-09-12 10:11:00,66.5,62.5,29.87,WSW,254,1.1,1.1,87,0.00,CLR,,0.01,WeatherDisplay:10.37,2013-09-12 14:11:00,
2013-09-12 10:16:00,66.9,62.9,29.87,SW,230,4.6,4.6,87,0.00,CLR,,0.01,WeatherDisplay:10.37,2013-09-12 14:16:00,
2013-09-12 10:21:00,66.9,62.2,29.86,WSW,245,0.0,0.0,85,0.00,CLR,,0.01,WeatherDisplay:10.37,2013-09-12 14:21:00,
2013-09-12 10:26:00,67.4,62.1,29.86,WSW,245,2.3,2.3,83,0.00,CLR,,0.01,WeatherDisplay:10.37,2013-09-12 14:26:00,
2013-09-12 10:31:00,67.4,62.4,29.87,WSW,242,0.0,0.0,84,0.00,CLR,,0.01,WeatherDisplay:10.37,2013-09-12 14:31:00,
2013-09-12 10:36:00,67.6,61.9,29.87,South,182,4.6,4.6,82,0.00,CLR,,0.01,WeatherDisplay:10.37,2013-09-12 14:36:00,
2013-09-12 10:41:00,67.4,61.7,29.87,SW,230,4.6,0.0,82,0.00,CLR,,0.01,WeatherDisplay:10.37,2013-09-12 14:41:00,
2013-09-12 10:46:00,67.6,62.3,29.87,SW,215,1.0,1.0,83,0.00,CLR,,0.01,WeatherDisplay:10.37,2013-09-12 14:46:00,
2013-09-12 10:51:00,68.1,62.7,29.87,SSW,203,0.0,0.0,83,0.00,CLR,,0.01,WeatherDisplay:10.37,2013-09-12 14:51:00,
2013-09-12 10:56:00,68.5,62.4,29.86,NNW,348,1.1,0.0,81,0.00,CLR,,0.01,WeatherDisplay:10.37,2013-09-12 14:56:00,
2013-09-12 11:01:00,69.1,62.3,29.86,NNE,21,5.8,5.8,79,0.00,CLR,,0.01,WeatherDisplay:10.37,2013-09-12 15:01:00,
2013-09-12 11:06:00,69.7,62.5,29.86,SSW,199,3.5,3.5,78,0.00,CLR,,0.01,WeatherDisplay:10.37,2013-09-12 15:06:00,
2013-09-12 11:11:00,70.1,63.3,29.87,SSW,196,1.0,1.0,79,0.00,CLR,,0.01,WeatherDisplay:10.37,2013-09-12 15:11:00,
2013-09-12 11:16:00,70.3,61.2,29.86,ESE,112,4.0,4.0,73,0.00,CLR,,0.01,WeatherDisplay:10.37,2013-09-12 15:16:00,
2013-09-12 11:21:00,70.5,61.8,29.86,SE,142,3.5,0.0,74,0.00,CLR,,0.01,WeatherDisplay:10.37,2013-09-12 15:21:00,
2013-09-12 11:26:00,71.0,61.5,29.86,NNW,329,4.6,4.6,72,0.00,CLR,,0.01,WeatherDisplay:10.37,2013-09-12 15:26:00,
2013-09-12 11:31:00,71.3,61.8,29.86,ENE,73,4.0,4.0,72,0.00,CLR,,0.01,WeatherDisplay:10.37,2013-09-12 15:31:00,
2013-09-12 11:36:00,71.4,61.1,29.86,NNE,13,6.9,6.9,70,0.00,CLR,,0.01,WeatherDisplay:10.37,2013-09-12 15:36:00,
2013-09-12 11:41:00,71.7,60.6,29.86,NW,318,3.5,0.0,68,0.00,CLR,,0.01,WeatherDisplay:10.37,2013-09-12 15:41:00,
2013-09-12 11:46:00,72.4,60.8,29.86,WSW,237,3.5,3.5,67,0.00,CLR,,0.01,WeatherDisplay:10.37,2013-09-12 15:46:00,
2013-09-12 11:51:00,72.5,60.9,29.86,SW,232,0.0,0.0,67,0.00,CLR,,0.01,WeatherDisplay:10.37,2013-09-12 15:51:00,
2013-09-12 11:56:00,72.8,61.6,29.86,North,11,4.6,4.6,68,0.00,CLR,,0.01,WeatherDisplay:10.37,2013-09-12 15:56:00,
2013-09-12 12:01:00,72.8,60.8,29.86,North,360,2.3,2.3,66,0.00,CLR,,0.01,WeatherDisplay:10.37,2013-09-12 16:01:00,
2013-09-12 12:06:00,72.7,60.3,29.86,East,80,16.1,16.1,65,0.00,CLR,,0.01,WeatherDisplay:10.37,2013-09-12 16:06:00,
2013-09-12 12:11:00,72.9,59.6,29.86,WSW,250,4.6,4.6,63,0.00,CLR,,0.01,WeatherDisplay:10.37,2013-09-12 16:11:00,
2013-09-12 12:16:00,72.9,60.9,29.86,West,267,3.5,0.0,66,0.00,CLR,,0.01,WeatherDisplay:10.37,2013-09-12 16:16:00,
2013-09-12 12:21:00,73.2,59.8,29.86,WNW,298,3.5,3.5,63,0.00,CLR,,0.01,WeatherDisplay:10.37,2013-09-12 16:21:00,
2013-09-12 12:26:00,73.1,59.8,29.86,WNW,289,2.0,2.0,63,0.00,CLR,,0.01,WeatherDisplay:10.37,2013-09-12 16:26:00,
2013-09-12 12:31:00,73.1,60.2,29.86,North,355,3.5,3.5,64,0.00,CLR,,0.01,WeatherDisplay:10.37,2013-09-12 16:31:00,
2013-09-12 12:36:00,73.5,60.1,29.86,WNW,299,1.1,0.0,63,0.00,CLR,,0.01,WeatherDisplay:10.37,2013-09-12 16:36:00,
2013-09-12 12:41:00,73.0,59.7,29.86,SW,215,3.5,0.0,63,0.00,CLR,,0.01,WeatherDisplay:10.37,2013-09-12 16:41:00,
2013-09-12 12:46:00,72.4,60.0,29.86,ESE,119,2.3,2.3,65,0.00,CLR,,0.01,WeatherDisplay:10.37,2013-09-12 16:46:00,
2013-09-12 12:51:00,72.2,58.5,29.85,SW,225,4.6,4.6,62,0.00,CLR,,0.01,WeatherDisplay:10.37,2013-09-12 16:51:00,
2013-09-12 12:56:00,72.9,59.1,29.85,WSW,256,0.0,0.0,62,0.00,CLR,,0.01,WeatherDisplay:10.37,2013-09-12 16:56:00,
2013-09-12 13:01:00,73.7,58.9,29.85,NW,313,5.8,5.8,60,0.00,CLR,,0.01,WeatherDisplay:10.37,2013-09-12 17:01:00,
2013-09-12 13:06:00,74.0,60.6,29.85,NW,311,1.1,0.0,63,0.00,CLR,,0.01,WeatherDisplay:10.37,2013-09-12 17:06:00,
2013-09-12 13:11:00,73.6,57.9,29.85,WSW,252,9.2,9.2,58,0.00,CLR,,0.01,WeatherDisplay:10.37,2013-09-12 17:11:00,
2013-09-12 13:16:00,73.7,58.9,29.85,ESE,123,4.6,0.0,60,0.00,CLR,,0.01,WeatherDisplay:10.37,2013-09-12 17:16:00,
2013-09-12 13:21:00,73.4,59.1,29.85,East,97,3.5,3.5,61,0.00,CLR,,0.01,WeatherDisplay:10.37,2013-09-12 17:21:00,
2013-09-12 13:26:00,72.6,58.4,29.85,NW,309,6.9,6.9,61,0.00,CLR,,0.01,WeatherDisplay:10.37,2013-09-12 17:26:00,
2013-09-12 13:31:00,72.2,58.5,29.85,NNW,344,6.0,6.0,62,0.00,CLR,,0.01,WeatherDisplay:10.37,2013-09-12 17:31:00,
2013-09-12 13:36:00,71.6,58.3,29.85,West,262,6.9,6.9,63,0.00,CLR,,0.01,WeatherDisplay:10.37,2013-09-12 17:36:00,
2013-09-12 13:41:00,71.9,59.5,29.85,ESE,109,3.5,3.5,65,0.00,CLR,,0.01,WeatherDisplay:10.37,2013-09-12 17:41:00,
2013-09-12 13:46:00,72.8,57.6,29.85,SW,232,5.8,5.8,59,0.00,CLR,,0.01,WeatherDisplay:10.37,2013-09-12 17:46:00,
2013-09-12 13:51:00,73.8,57.1,29.85,NNE,28,6.9,6.9,56,0.00,CLR,,0.01,WeatherDisplay:10.37,2013-09-12 17:51:00,
2013-09-12 13:56:00,74.3,57.1,29.84,SW,236,2.3,2.3,55,0.00,CLR,,0.01,WeatherDisplay:10.37,2013-09-12 17:56:00,
2013-09-12 14:01:00,74.8,58.1,29.85,SW,225,2.3,2.3,56,0.00,CLR,,0.01,WeatherDisplay:10.37,2013-09-12 18:01:00,
2013-09-12 14:06:00,74.2,56.5,29.85,NW,305,4.6,4.6,54,0.00,CLR,,0.01,WeatherDisplay:10.37,2013-09-12 18:06:00,
2013-09-12 14:11:00,72.6,57.0,29.85,NNW,341,0.0,0.0,58,0.00,CLR,,0.01,WeatherDisplay:10.37,2013-09-12 18:11:00,
2013-09-12 14:16:00,71.8,56.7,29.85,NE,48,1.1,1.1,59,0.00,CLR,,0.01,WeatherDisplay:10.37,2013-09-12 18:16:00,
2013-09-12 14:21:00,71.4,57.2,29.85,SSW,212,3.5,3.5,61,0.00,CLR,,0.01,WeatherDisplay:10.37,2013-09-12 18:21:00,
2013-09-12 14:26:00,72.1,57.4,29.85,SW,236,10.4,10.4,60,0.00,CLR,,0.01,WeatherDisplay:10.37,2013-09-12 18:26:00,
2013-09-12 14:32:00,72.8,57.2,29.84,WNW,284,3.5,3.5,58,0.00,CLR,,0.01,WeatherDisplay:10.37,2013-09-12 18:32:00,
2013-09-12 14:37:00,73.5,57.3,29.84,WSW,255,4.0,4.0,57,0.00,CLR,,0.01,WeatherDisplay:10.37,2013-09-12 18:37:00,
2013-09-12 14:42:00,73.7,57.0,29.84,NNW,342,10.4,10.4,56,0.00,CLR,,0.01,WeatherDisplay:10.37,2013-09-12 18:42:00,
2013-09-12 14:47:00,74.0,56.8,29.84,WNW,289,1.1,1.1,55,0.00,CLR,,0.01,WeatherDisplay:10.37,2013-09-12 18:47:00,
2013-09-12 14:52:00,74.4,57.7,29.84,NNE,32,4.6,4.6,56,0.00,CLR,,0.01,WeatherDisplay:10.37,2013-09-12 18:52:00,
2013-09-12 14:57:00,74.7,58.0,29.84,NW,317,5.8,5.8,56,0.00,CLR,,0.01,WeatherDisplay:10.37,2013-09-12 18:57:00,
2013-09-12 15:02:00,73.7,55.5,29.84,ESE,111,10.4,10.4,53,0.00,CLR,,0.01,WeatherDisplay:10.37,2013-09-12 19:02:00,
2013-09-12 15:07:00,72.4,55.3,29.84,WNW,291,1.1,1.1,55,0.00,CLR,,0.01,WeatherDisplay:10.37,2013-09-12 19:07:00,
2013-09-12 15:12:00,72.4,55.8,29.84,WNW,303,6.9,6.9,56,0.00,CLR,,0.01,WeatherDisplay:10.37,2013-09-12 19:12:00,
2013-09-12 15:17:00,73.4,55.7,29.84,WNW,287,11.5,11.5,54,0.00,CLR,,0.01,WeatherDisplay:10.37,2013-09-12 19:17:00,
2013-09-12 15:22:00,73.3,56.7,29.84,WNW,303,5.8,5.8,56,0.00,CLR,,0.01,WeatherDisplay:10.37,2013-09-12 19:22:00,
2013-09-12 15:27:00,73.2,57.1,29.84,WNW,296,0.0,0.9,57,0.00,CLR,,0.01,WeatherDisplay:10.37,2013-09-12 19:27:00,
2013-09-12 15:32:00,73.4,56.7,29.84,SSW,207,11.5,11.5,56,0.00,CLR,,0.01,WeatherDisplay:10.37,2013-09-12 19:32:00,
2013-09-12 15:37:00,72.6,55.5,29.84,ESE,109,6.9,6.9,55,0.00,CLR,,0.01,WeatherDisplay:10.37,2013-09-12 19:37:00,
2013-09-12 15:42:00,72.3,56.2,29.84,NE,53,6.9,6.9,57,0.00,CLR,,0.01,WeatherDisplay:10.37,2013-09-12 19:42:00,
2013-09-12 15:47:00,72.3,56.7,29.84,West,280,3.5,3.5,58,0.00,CLR,,0.01,WeatherDisplay:10.37,2013-09-12 19:47:00,
2013-09-12 15:52:00,72.2,55.6,29.84,NE,53,3.5,3.5,56,0.00,CLR,,0.01,WeatherDisplay:10.37,2013-09-12 19:52:00,
2013-09-12 15:57:00,72.2,55.1,29.84,SW,227,4.6,4.6,55,0.00,CLR,,0.01,WeatherDisplay:10.37,2013-09-12 19:57:00,
2013-09-12 16:02:00,72.2,55.6,29.85,NNE,21,1.1,0.0,56,0.00,CLR,,0.01,WeatherDisplay:10.37,2013-09-12 20:02:00,
2013-09-12 16:07:00,72.2,56.6,29.84,NNW,333,6.9,6.9,58,0.00,CLR,,0.01,WeatherDisplay:10.37,2013-09-12 20:07:00,
2013-09-12 16:12:00,71.7,54.7,29.85,NNW,340,13.8,13.8,55,0.00,CLR,,0.01,WeatherDisplay:10.37,2013-09-12 20:12:00,
2013-09-12 16:17:00,71.0,54.5,29.85,NNW,330,7.0,7.0,56,0.00,CLR,,0.01,WeatherDisplay:10.37,2013-09-12 20:17:00,
2013-09-12 16:22:00,70.5,54.0,29.84,West,270,4.6,4.6,56,0.00,CLR,,0.01,WeatherDisplay:10.37,2013-09-12 20:22:00,
2013-09-12 16:27:00,70.4,53.5,29.85,NNW,342,3.5,3.6,55,0.00,CLR,,0.01,WeatherDisplay:10.37,2013-09-12 20:27:00,
2013-09-12 16:32:00,70.0,52.6,29.85,WNW,286,19.6,19.6,54,0.00,CLR,,0.01,WeatherDisplay:10.37,2013-09-12 20:32:00,
2013-09-12 16:37:00,69.5,53.1,29.85,ENE,65,12.0,12.0,56,0.00,CLR,,0.01,WeatherDisplay:10.37,2013-09-12 20:37:00,
2013-09-12 16:42:00,69.4,53.5,29.84,NNW,341,16.1,16.1,57,0.00,CLR,,0.01,WeatherDisplay:10.37,2013-09-12 20:42:00,
2013-09-12 16:47:00,69.2,51.8,29.85,NW,326,11.5,11.5,54,0.00,CLR,,0.01,WeatherDisplay:10.37,2013-09-12 20:47:00,
2013-09-12 16:52:00,69.0,52.6,29.85,SSW,208,12.7,12.7,56,0.00,CLR,,0.01,WeatherDisplay:10.37,2013-09-12 20:52:00,
2013-09-12 16:57:00,68.8,52.5,29.84,NNW,330,6.0,6.0,56,0.00,CLR,,0.01,WeatherDisplay:10.37,2013-09-12 20:57:00,
2013-09-12 17:02:00,68.6,53.2,29.84,SW,229,3.5,3.5,58,0.00,CLR,,0.01,WeatherDisplay:10.37,2013-09-12 21:02:00,
2013-09-12 17:07:00,68.5,52.2,29.84,West,270,10.4,10.4,56,0.00,CLR,,0.01,WeatherDisplay:10.37,2013-09-12 21:07:00,
2013-09-12 17:12:00,68.5,52.7,29.84,NW,315,6.9,6.9,57,0.00,CLR,,0.01,WeatherDisplay:10.37,2013-09-12 21:12:00,
2013-09-12 17:17:00,68.2,53.8,29.84,East,80,9.2,9.2,60,0.00,CLR,,0.01,WeatherDisplay:10.37,2013-09-12 21:17:00,
2013-09-12 17:22:00,67.7,52.9,29.84,NNE,33,10.4,10.4,59,0.00,CLR,,0.01,WeatherDisplay:10.37,2013-09-12 21:22:00,
2013-09-12 17:27:00,67.3,52.9,29.84,West,273,1.1,0.0,60,0.00,CLR,,0.01,WeatherDisplay:10.37,2013-09-12 21:27:00,
2013-09-12 17:32:00,67.2,51.9,29.84,NE,37,5.8,5.8,58,0.00,CLR,,0.01,WeatherDisplay:10.37,2013-09-12 21:32:00,
2013-09-12 17:37:00,66.6,51.8,29.85,North,9,3.5,3.5,59,0.00,CLR,,0.01,WeatherDisplay:10.37,2013-09-12 21:37:00,
2013-09-12 17:42:00,66.1,51.8,29.85,ENE,65,1.1,1.1,60,0.00,CLR,,0.01,WeatherDisplay:10.37,2013-09-12 21:42:00,
2013-09-12 17:47:00,66.0,51.3,29.85,NNE,30,9.2,9.2,59,0.00,CLR,,0.01,WeatherDisplay:10.37,2013-09-12 21:47:00,
2013-09-12 17:52:00,65.8,51.1,29.85,NNE,23,8.1,8.1,59,0.00,CLR,,0.01,WeatherDisplay:10.37,2013-09-12 21:52:00,
2013-09-12 17:57:00,65.1,50.4,29.86,NW,306,3.5,3.5,59,0.00,CLR,,0.01,WeatherDisplay:10.37,2013-09-12 21:57:00,
2013-09-12 18:02:00,64.8,50.6,29.86,WNW,297,4.6,4.6,60,0.00,CLR,,0.01,WeatherDisplay:10.37,2013-09-12 22:02:00,
2013-09-12 18:07:00,64.7,50.5,29.86,ESE,113,3.5,3.5,60,0.00,CLR,,0.01,WeatherDisplay:10.37,2013-09-12 22:07:00,
2013-09-12 18:12:00,64.7,50.0,29.87,NNW,330,2.3,2.3,59,0.00,CLR,,0.01,WeatherDisplay:10.37,2013-09-12 22:12:00,
2013-09-12 18:17:00,64.5,50.3,29.87,ENE,68,12.7,12.7,60,0.00,CLR,,0.01,WeatherDisplay:10.37,2013-09-12 22:17:00,
2013-09-12 18:22:00,63.9,49.7,29.88,North,360,1.1,1.1,60,0.00,CLR,,0.01,WeatherDisplay:10.37,2013-09-12 22:22:00,
2013-09-12 18:27:00,63.8,50.1,29.87,NNE,32,6.9,6.9,61,0.00,CLR,,0.01,WeatherDisplay:10.37,2013-09-12 22:27:00,
2013-09-12 18:32:00,63.7,49.5,29.88,NW,319,0.0,0.0,60,0.00,CLR,,0.01,WeatherDisplay:10.37,2013-09-12 22:32:00,
2013-09-12 18:37:00,63.8,50.1,29.88,NE,51,11.5,11.5,61,0.00,CLR,,0.01,WeatherDisplay:10.37,2013-09-12 22:37:00,
2013-09-12 18:42:00,63.6,49.9,29.88,East,84,0.0,0.2,61,0.00,CLR,,0.01,WeatherDisplay:10.37,2013-09-12 22:42:00,
2013-09-12 18:47:00,63.3,50.5,29.88,East,92,1.1,0.0,63,0.00,CLR,,0.01,WeatherDisplay:10.37,2013-09-12 22:47:00,
2013-09-12 18:52:00,63.0,50.2,29.89,North,5,0.0,0.0,63,0.00,CLR,,0.01,WeatherDisplay:10.37,2013-09-12 22:52:00,
2013-09-12 18:57:00,62.7,49.9,29.89,NNW,336,5.8,5.8,63,0.00,CLR,,0.01,WeatherDisplay:10.37,2013-09-12 22:57:00,
2013-09-12 19:02:00,62.4,50.1,29.90,WSW,244,3.0,3.0,64,0.00,CLR,,0.01,WeatherDisplay:10.37,2013-09-12 23:02:00,
2013-09-12 19:07:00,62.1,50.2,29.89,NW,306,0.0,0.0,65,0.00,CLR,,0.01,WeatherDisplay:10.37,2013-09-12 23:07:00,
2013-09-12 19:12:00,61.7,49.8,29.90,NE,49,3.5,3.5,65,0.00,CLR,,0.01,WeatherDisplay:10.37,2013-09-12 23:12:00,
2013-09-12 19:17:00,61.3,49.4,29.90,NNE,24,1.1,1.1,65,0.00,CLR,,0.01,WeatherDisplay:10.37,2013-09-12 23:17:00,
2013-09-12 19:22:00,61.0,49.6,29.90,NW,311,2.3,2.3,66,0.00,CLR,,0.01,WeatherDisplay:10.37,2013-09-12 23:22:00,
2013-09-12 19:27:00,60.6,50.0,29.90,NNW,338,0.0,0.0,68,0.00,CLR,,0.01,WeatherDisplay:10.37,2013-09-12 23:27:00,
2013-09-12 19:32:00,60.2,48.8,29.90,WNW,300,5.8,5.8,66,0.00,CLR,,0.01,WeatherDisplay:10.37,2013-09-12 23:32:00,
2013-09-12 19:37:00,60.1,48.3,29.90,South,176,8.1,8.1,65,0.00,CLR,,0.01,WeatherDisplay:10.37,2013-09-12 23:37:00,
2013-09-12 19:42:00,60.1,48.7,29.90,North,5,0.0,0.8,66,0.00,CLR,,0.01,WeatherDisplay:10.37,2013-09-12 23:42:00,
2013-09-12 19:47:00,60.1,48.3,29.90,NNW,340,1.1,1.1,65,0.00,CLR,,0.01,WeatherDisplay:10.37,2013-09-12 23:47:00,
2013-09-12 19:52:00,60.0,48.2,29.90,NNW,345,0.0,0.0,65,0.00,CLR,,0.01,WeatherDisplay:10.37,2013-09-12 23:52:00,
2013-09-12 19:57:00,59.9,47.7,29.90,East,88,3.5,3.5,64,0.00,CLR,,0.01,WeatherDisplay:10.37,2013-09-12 23:57:00,
2013-09-12 20:02:00,59.8,48.8,29.90,West,261,1.1,0.0,67,0.00,CLR,,0.01,WeatherDisplay:10.37,2013-09-13 00:02:00,
2013-09-12 20:07:00,59.6,47.8,29.91,NNW,327,3.5,3.5,65,0.00,CLR,,0.01,WeatherDisplay:10.37,2013-09-13 00:07:00,
2013-09-12 20:12:00,59.5,48.1,29.91,NNE,30,0.0,0.0,66,0.00,CLR,,0.01,WeatherDisplay:10.37,2013-09-13 00:12:00,
2013-09-12 20:17:00,59.3,47.5,29.91,NNW,329,5.8,5.8,65,0.00,CLR,,0.01,WeatherDisplay:10.37,2013-09-13 00:17:00,
2013-09-12 20:22:00,59.0,48.1,29.91,North,355,1.1,0.0,67,0.00,CLR,,0.01,WeatherDisplay:10.37,2013-09-13 00:22:00,
2013-09-12 20:27:00,59.0,48.1,29.92,WNW,290,3.5,3.5,67,0.00,CLR,,0.01,WeatherDisplay:10.37,2013-09-13 00:27:00,
2013-09-12 20:32:00,59.0,48.8,29.92,NW,318,0.0,0.0,69,0.00,CLR,,0.01,WeatherDisplay:10.37,2013-09-13 00:32:00,
2013-09-12 20:37:00,59.0,48.4,29.92,SE,146,0.0,0.0,68,0.00,CLR,,0.01,WeatherDisplay:10.37,2013-09-13 00:37:00,
2013-09-12 20:42:00,59.0,48.4,29.92,NW,319,3.5,0.0,68,0.00,CLR,,0.01,WeatherDisplay:10.37,2013-09-13 00:42:00,
2013-09-12 20:47:00,58.9,48.4,29.92,SW,219,2.3,2.3,68,0.00,CLR,,0.01,WeatherDisplay:10.37,2013-09-13 00:47:00,
2013-09-12 20:52:00,58.5,48.0,29.92,NW,309,5.0,5.0,68,0.00,CLR,,0.01,WeatherDisplay:10.37,2013-09-13 00:52:00,
2013-09-12 20:57:00,58.1,48.4,29.93,WNW,298,0.0,0.4,70,0.00,CLR,,0.01,WeatherDisplay:10.37,2013-09-13 00:57:00,
2013-09-12 21:02:00,57.9,48.2,29.93,North,10,2.3,2.3,70,0.00,CLR,,0.01,WeatherDisplay:10.37,2013-09-13 01:02:00,
2013-09-12 21:07:00,57.7,47.6,29.93,North,355,2.3,2.3,69,0.00,CLR,,0.01,WeatherDisplay:10.37,2013-09-13 01:07:00,
2013-09-12 21:12:00,57.7,47.6,29.93,ENE,65,2.3,0.0,69,0.00,CLR,,0.01,WeatherDisplay:10.37,2013-09-13 01:12:00,
2013-09-12 21:17:00,57.7,46.8,29.93,South,172,3.5,3.5,67,0.00,CLR,,0.01,WeatherDisplay:10.37,2013-09-13 01:17:00,
2013-09-12 21:22:00,57.6,45.9,29.93,NW,309,1.1,1.1,65,0.00,CLR,,0.01,WeatherDisplay:10.37,2013-09-13 01:22:00,
2013-09-12 21:27:00,57.6,45.9,29.94,WSW,239,2.3,2.3,65,0.00,CLR,,0.01,WeatherDisplay:10.37,2013-09-13 01:27:00,
2013-09-12 21:32:00,57.6,46.3,29.93,NNW,338,0.0,0.0,66,0.00,CLR,,0.01,WeatherDisplay:10.37,2013-09-13 01:32:00,
2013-09-12 21:37:00,57.6,45.9,29.94,NW,304,3.5,3.5,65,0.00,CLR,,0.01,WeatherDisplay:10.37,2013-09-13 01:37:00,
2013-09-12 21:42:00,57.5,46.2,29.94,WNW,296,2.3,2.3,66,0.00,CLR,,0.01,WeatherDisplay:10.37,2013-09-13 01:42:00,
2013-09-12 21:47:00,57.4,46.9,29.94,North,350,1.0,0.0,68,0.00,CLR,,0.01,WeatherDisplay:10.37,2013-09-13 01:47:00,
2013-09-12 21:52:00,57.3,46.0,29.94,WNW,295,6.0,6.0,66,0.00,CLR,,0.01,WeatherDisplay:10.37,2013-09-13 01:52:00,
2013-09-12 21:57:00,57.2,46.3,29.94,North,355,1.1,0.0,67,0.00,CLR,,0.01,WeatherDisplay:10.37,2013-09-13 01:57:00,
2013-09-12 22:02:00,57.1,46.2,29.94,NNW,336,3.5,0.0,67,0.00,CLR,,0.01,WeatherDisplay:10.37,2013-09-13 02:02:00,
2013-09-12 22:07:00,57.0,46.1,29.94,NNW,331,1.1,1.1,67,0.00,CLR,,0.01,WeatherDisplay:10.37,2013-09-13 02:07:00,
2013-09-12 22:12:00,57.0,46.1,29.94,NNW,332,7.0,7.0,67,0.00,CLR,,0.01,WeatherDisplay:10.37,2013-09-13 02:12:00,
2013-09-12 22:17:00,57.0,46.5,29.94,WNW,286,3.5,3.5,68,0.00,CLR,,0.01,WeatherDisplay:10.37,2013-09-13 02:17:00,
2013-09-12 22:22:00,56.9,46.1,29.94,NNE,22,0.0,0.0,67,0.00,CLR,,0.01,WeatherDisplay:10.37,2013-09-13 02:22:00,
2013-09-12 22:27:00,56.8,46.0,29.94,ESE,121,1.1,1.1,67,0.00,CLR,,0.01,WeatherDisplay:10.37,2013-09-13 02:27:00,
2013-09-12 22:32:00,56.8,46.3,29.94,SE,141,1.0,0.0,68,0.00,CLR,,0.01,WeatherDisplay:10.37,2013-09-13 02:32:00,
2013-09-12 22:37:00,56.7,45.5,29.94,WNW,287,11.5,11.5,66,0.00,CLR,,0.01,WeatherDisplay:10.37,2013-09-13 02:37:00,
2013-09-12 22:42:00,56.6,45.0,29.94,NNE,25,1.1,1.1,65,0.00,CLR,,0.01,WeatherDisplay:10.37,2013-09-13 02:42:00,
2013-09-12 22:47:00,56.5,44.9,29.94,NE,35,1.1,1.1,65,0.00,CLR,,0.01,WeatherDisplay:10.37,2013-09-13 02:47:00,
2013-09-12 22:52:00,56.4,44.8,29.94,NE,46,3.5,3.5,65,0.00,CLR,,0.01,WeatherDisplay:10.37,2013-09-13 02:52:00,
2013-09-12 22:57:00,56.2,45.0,29.94,West,279,5.8,5.8,66,0.00,CLR,,0.01,WeatherDisplay:10.37,2013-09-13 02:57:00,
2013-09-12 23:02:00,56.1,44.9,29.94,North,5,11.5,11.5,66,0.00,CLR,,0.01,WeatherDisplay:10.37,2013-09-13 03:02:00,
2013-09-12 23:07:00,56.0,44.8,29.94,WNW,290,3.5,3.5,66,0.00,CLR,,0.01,WeatherDisplay:10.37,2013-09-13 03:07:00,
2013-09-12 23:12:00,56.0,45.2,29.94,NNE,15,1.1,1.1,67,0.00,CLR,,0.01,WeatherDisplay:10.37,2013-09-13 03:12:00,
2013-09-12 23:17:00,55.9,45.1,29.95,North,11,5.8,5.8,67,0.00,CLR,,0.01,WeatherDisplay:10.37,2013-09-13 03:17:00,
2013-09-12 23:22:00,55.7,44.5,29.95,West,266,1.1,1.1,66,0.00,CLR,,0.01,WeatherDisplay:10.37,2013-09-13 03:22:00,
2013-09-12 23:27:00,55.6,44.4,29.95,NW,311,6.9,6.9,66,0.00,CLR,,0.01,WeatherDisplay:10.37,2013-09-13 03:27:00,
2013-09-12 23:32:00,55.5,44.7,29.95,NNE,17,0.0,0.0,67,0.00,CLR,,0.01,WeatherDisplay:10.37,2013-09-13 03:32:00,
2013-09-12 23:37:00,55.4,45.0,29.94,NW,315,0.0,0.0,68,0.00,CLR,,0.01,WeatherDisplay:10.37,2013-09-13 03:37:00,
2013-09-12 23:42:00,55.3,44.5,29.95,WNW,296,3.5,3.5,67,0.00,CLR,,0.01,WeatherDisplay:10.37,2013-09-13 03:42:00,
2013-09-12 23:47:00,55.2,44.4,29.95,NNE,14,5.8,5.8,67,0.00,CLR,,0.01,WeatherDisplay:10.37,2013-09-13 03:47:00,
2013-09-12 23:52:00,55.1,44.3,29.95,NNE,19,0.0,0.0,67,0.00,CLR,,0.01,WeatherDisplay:10.37,2013-09-13 03:52:00,
2013-09-12 23:57:00,55.0,44.2,29.95,NNE,19,0.0,0.0,67,0.00,CLR,,0.01,WeatherDisplay:10.37,2013-09-13 03:57:00,